Regional Weather Roundup
Issued by NWS

Home | Current Version | Previous Version | Graphics & Text | Print | Product List | Glossary On
Versions: 1 2 3 4 5 6 7 8 9 10 11 12 13 14 15 16 17 18 19 20 21 22 23 24 25 26 27 28 29 30 31 32 33 34 35 36 37 38 39 40 41 42 43 44 45 46 47 48 49 50
000
ASUS43 KLOT 241104
RWRIL

ILLINOIS REGIONAL WEATHER ROUNDUP
NATIONAL WEATHER SERVICE CHICAGO/ROMEOVILLE IL
600 AM CDT MON JUL 24 2017

NOTE: "FAIR" INDICATES FEW OR NO CLOUDS BELOW 12,000 FEET WITH NO
SIGNIFICANT WEATHER AND/OR OBSTRUCTIONS TO VISIBILITY.

* THESE STATIONS ARE NOT UNDER NWS QUALITY CONTROL. THEY ALSO MAY NOT
  REPORT WEATHER SUCH AS PRECIPITATION OR FOG.

ILZ001-002-007-009-015-016-024-241200-
NORTHWEST ILLINOIS

CITY           SKY/WX    TMP DP  RH WIND       PRES   REMARKS
MOLINE         CLOUDY    68  62  81 CALM      29.97R
STERLING*      CLOUDY    66  64  93 E7        29.98R
SAVANNA*       PTCLDY    64  62  93 NE8       29.99R
$$

ILZ003-004-008-010-011-017-018-241200-
NORTH CENTRAL ILLINOIS

CITY           SKY/WX    TMP DP  RH WIND       PRES   REMARKS
ROCKFORD       CLOUDY    67  59  75 NE13      30.00R
FREEPORT*      CLOUDY    63  58  86 NE8       30.01S
ROCHELLE*      CLOUDY    66  63  91 NE6       29.99R
DE KALB*       CLOUDY    65  62  91 NE8       29.99R
$$

ILZ005-006-012>014-019>023-241200-
NORTHEAST ILLINOIS

CITY           SKY/WX    TMP DP  RH WIND       PRES   REMARKS
CHICAGO-OHARE  MOCLDY    67  60  78 N10       29.97R
CHICAGO-MIDWAY MOCLDY    69  60  73 N15       29.96R
AURORA         PTCLDY    65  61  87 N8        29.98R
LANSING*       CLOUDY    68  60  74 N12G17    29.95R
JOLIET*        CLEAR     67  63  87 CALM      29.97R
WAUKEGAN       MOCLDY    62  61  96 NW5       29.98R
DUPAGE AIRPORT PTCLDY    62  61  96 N9        29.97R
WHEELING       PTCLDY    66  63  90 N7        29.99R
MORRIS*        PTCLDY    64  62  91 N3        29.96R
NORTHERLY ISL    N/A     68  59  73 N12         N/A
$$

LMZ740>746-241200-
SOUTHERN LAKE MICHIGAN

STATION/POSITION SKY/WX   TEMP    WIND        PRES    VSBY  WAVE
                          AIR SEA DIR/SP/G                  HT/PER
                          (F)     (DEG/KT/KT) (MB)    (MI)  (FT/S)
SOUTHERN BUOY              67 69   10/ 17/ 21 1013.3          5/ 6
WILMETTE HARBOR            68 72  350/ 14/ 19   N/A           6/ 5
HARRISON CRIB              69      10/ 19/ 20   N/A
BURNHAM HARBOR             68                   N/A
CALUMET HARBOR             68     360/ 11/ 16 1013.9R
BURNS HARBOR               69     350/ 15/ 18 1014.2R
MICHIGAN CITY              69     350/ 21/ 22   N/A
MICHIGAN CITY 6N           69 74   10/ 16/ 21   N/A           5/ 6
ST. JOSEPH                 69 74   40/ 14/ 19 1013.7R         5/ 6
$$

ILZ025>027-034>036-040-047-049-050-058-095>099-241200-
WEST-CENTRAL ILLINOIS

CITY           SKY/WX    TMP DP  RH WIND       PRES   REMARKS
QUINCY         CLEAR     64  61  90 N3        29.96R
GALESBURG*     CLEAR     60  60  99 CALM      29.97R
MACOMB*        CLEAR     62  61  96 N3        29.98R
JACKSONVILLE*  CLEAR     63  61  94 CALM      29.94R
PITTSFIELD*    PTCLDY    67  64  87 CALM      29.97R
$$

ILZ028>032-037-038-041>044-048-051>054-059>061-241200-
CENTRAL ILLINOIS

CITY           SKY/WX    TMP DP  RH WIND       PRES   REMARKS
PONTIAC        CLOUDY    67  67  98 NE10      29.96R
BLOOMINGTON    PTCLDY    64  63  96 NE9       29.95R
DECATUR        CLEAR     67  65  93 CALM      29.93R
PEORIA         CLEAR     66  64  93 MISG      29.95R
LACON*         CLOUDY    68  67  97 NE3       29.95R
LINCOLN*       CLEAR     67  66  97 NW3       29.93R
SPRINGFIELD    PTCLDY    68  66  93 N5        29.94R
TAYLORVILLE    NOT AVBL
$$

ILZ033-039-045-046-055>057-062-063-241200-
EAST-CENTRAL ILLINOIS

CITY           SKY/WX    TMP DP  RH WIND       PRES   REMARKS
CHAMPAIGN      CLEAR     67  65  93 N10       29.92R
MATTOON        CLEAR     67  66  97 CALM      29.92R
PARIS*         CLEAR     65  65 100 CALM      29.92R
$$

ILZ079-100>102-241200-
SOUTHWEST ILLINOIS

CITY           SKY/WX    TMP DP  RH WIND       PRES   REMARKS
ALTON          CLEAR     69  68  98 NW3       29.93R
BELLEVILLE     CLEAR     71  68  89 N3        29.93R
CAHOKIA*       PTCLDY    73  67  81 CALM      29.93R
SPARTA*        CLEAR     71  69  94 CALM      29.93R
$$

ILZ064>066-069>071-074>076-080>082-084>086-088>090-092>094-241200-
SOUTH-CENTRAL ILLINOIS

CITY           SKY/WX    TMP DP  RH WIND       PRES   REMARKS
CARBONDALE     PTCLDY    69  69 100 CALM      29.91R
CAIRO*         CLOUDY    73  72  94 CALM      29.90R
EFFINGHAM*     CLEAR     69  69 100 CALM      29.94R
MARION         CLOUDY    72  72 100 N3        29.92R
MT. VERNON     CLEAR     68  68 100 CALM      29.91R FOG
CENTRALIA*     CLEAR     72  71  96 CALM      29.91R
SALEM*         CLEAR     71  69  94 CALM      29.92R FOG
METROPOLIS*    CLOUDY    72  71  97 CALM      29.91S
$$

ILZ067-068-072-073-078-083-087-091-241200-
SOUTHEAST ILLINOIS

CITY           SKY/WX    TMP DP  RH WIND       PRES   REMARKS
LAWRENCEVILLE  MOCLDY    73  71  93 N3        29.91R
FLORA*         CLEAR     73  71  93 N5        29.92R
FAIRFIELD*     CLEAR     70  70  98 CALM      29.90R
HARRISBURG*    CLOUDY    71  71  99 CALM      29.91R
ROBINSON*      CLEAR     67  67 100 NW3       29.92R
CARMI*         CLOUDY    69  69 100 CALM      29.90R
$$

ABBREVIATIONS USED IN REMARKS
   TC - TEMPERATURE IN CELSIUS
  WCI - WIND CHILL INDEX
   HX - HEAT INDEX
  VSB - VISIBILITY
$$





USA.gov is the U.S. government's official web portal to all federal, state and local government web resources and services.